CES5115 ZSSS-ZBAA

Flight info

Callsign CES5115
Flight time 1h 48m
Altitude 40100
Route POMOK G330 PIMOL A593 DALIM W157 AVBOX AVBOX7X
Aircraft A332/H-SDE3GHIJ2J3J5M1RVWXY/LB2D1

Departure

Time 2026-05-06 09:00
Airport Shanghai Hongqiao International Airport (ZSSS)

Arrival

Time 2026-05-06 10:49
Airport Beijing Capital International Airport (ZBAA)
Time Latitude Longitude Altitude Speed Heading
2026-05-06 08:16 31.20283 121.32672 13 ft 0 kts 358°
2026-05-06 08:50 31.20277 121.32672 13 ft 3 kts 356°
2026-05-06 08:50 31.20255 121.32674 14 ft 3 kts
2026-05-06 08:50 31.20234 121.32672 15 ft 3 kts
2026-05-06 08:50 31.20213 121.32667 14 ft 3 kts 18°
2026-05-06 08:51 31.20202 121.32662 16 ft 2 kts 21°
2026-05-06 08:54 31.20207 121.32664 14 ft 2 kts 21°
2026-05-06 08:54 31.20221 121.32674 15 ft 1 kts 40°
2026-05-06 08:54 31.20228 121.32687 14 ft 3 kts 59°
2026-05-06 08:55 31.20232 121.32714 13 ft 4 kts 90°
2026-05-06 08:55 31.20223 121.32755 13 ft 6 kts 108°
2026-05-06 08:55 31.20206 121.32810 13 ft 8 kts 95°
2026-05-06 08:55 31.20209 121.32885 13 ft 10 kts 83°
2026-05-06 08:56 31.20251 121.32943 14 ft 10 kts 15°
2026-05-06 08:56 31.20322 121.32951 14 ft 11 kts
2026-05-06 08:56 31.20396 121.32942 14 ft 11 kts 359°
2026-05-06 08:56 31.20482 121.32940 13 ft 14 kts 359°
2026-05-06 08:57 31.20585 121.32927 13 ft 16 kts 355°
2026-05-06 08:57 31.20701 121.32922 13 ft 18 kts 358°
2026-05-06 08:57 31.20833 121.32915 13 ft 20 kts 359°
2026-05-06 08:57 31.20978 121.32906 13 ft 22 kts 356°
2026-05-06 08:58 31.21136 121.32897 14 ft 24 kts 358°
2026-05-06 08:58 31.21265 121.32908 13 ft 13 kts 43°
2026-05-06 08:58 31.21292 121.33010 13 ft 14 kts 84°
2026-05-06 08:58 31.21291 121.33127 13 ft 14 kts 110°
2026-05-06 08:59 31.21210 121.33167 12 ft 9 kts 177°
2026-05-06 08:59 31.21208 121.33167 12 ft 0 kts 177°
2026-05-06 08:59 31.21179 121.33169 12 ft 17 kts 177°
2026-05-06 08:59 31.20837 121.33189 11 ft 84 kts 177°
2026-05-06 09:00 31.20031 121.33234 14 ft 148 kts 177°
2026-05-06 09:00 31.18852 121.33292 323 ft 189 kts 175°
2026-05-06 09:00 31.17415 121.33317 797 ft 224 kts 178°
2026-05-06 09:00 31.15783 121.33384 1474 ft 246 kts 178°
2026-05-06 09:01 31.14071 121.33384 2491 ft 240 kts 180°
2026-05-06 09:01 31.12458 121.33328 3812 ft 232 kts 180°
2026-05-06 09:01 31.10866 121.33039 4839 ft 234 kts 202°
2026-05-06 09:01 31.09662 121.31790 5871 ft 241 kts 242°
2026-05-06 09:02 31.09480 121.29842 6770 ft 254 kts 283°
2026-05-06 09:02 31.10178 121.27884 7545 ft 268 kts 296°
2026-05-06 09:02 31.11272 121.26076 8370 ft 278 kts 313°
2026-05-06 09:02 31.12826 121.24708 9392 ft 282 kts 327°
2026-05-06 09:03 31.14542 121.23579 10385 ft 285 kts 328°
2026-05-06 09:03 31.16281 121.22460 11300 ft 288 kts 329°
2026-05-06 09:03 31.18046 121.21301 12126 ft 294 kts 328°
2026-05-06 09:03 31.19825 121.20111 13039 ft 296 kts 328°
2026-05-06 09:04 31.21724 121.19104 13820 ft 306 kts 338°
2026-05-06 09:04 31.23826 121.18361 14182 ft 327 kts 342°
2026-05-06 09:04 31.26098 121.17647 14475 ft 347 kts 342°
2026-05-06 09:04 31.28479 121.16906 14957 ft 359 kts 342°
2026-05-06 09:05 31.30916 121.16143 15624 ft 365 kts 342°
2026-05-06 09:05 31.33379 121.15369 16327 ft 370 kts 342°
2026-05-06 09:05 31.35850 121.14586 17048 ft 374 kts 342°
2026-05-06 09:05 31.38374 121.13784 17764 ft 378 kts 342°
2026-05-06 09:06 31.40961 121.12959 18463 ft 382 kts 342°
2026-05-06 09:06 31.43501 121.12134 19050 ft 385 kts 340°
2026-05-06 09:06 31.46030 121.11096 19683 ft 386 kts 335°
2026-05-06 09:06 31.48510 121.09888 20335 ft 387 kts 333°
2026-05-06 09:07 31.50973 121.08596 20988 ft 389 kts 332°
2026-05-06 09:07 31.53433 121.07260 21612 ft 391 kts 332°
2026-05-06 09:07 31.55912 121.05900 22229 ft 394 kts 332°
2026-05-06 09:07 31.58400 121.04539 22836 ft 396 kts 332°
2026-05-06 09:08 31.60906 121.03176 23448 ft 399 kts 332°
2026-05-06 09:08 31.63402 121.01827 23919 ft 402 kts 332°
2026-05-06 09:08 31.65953 121.00454 24407 ft 404 kts 332°
2026-05-06 09:08 31.68515 120.99078 24901 ft 407 kts 332°
2026-05-06 09:09 31.71100 120.97691 25370 ft 409 kts 332°
2026-05-06 09:09 31.73694 120.96299 25841 ft 412 kts 332°
2026-05-06 09:09 31.76317 120.94897 26284 ft 415 kts 332°
2026-05-06 09:09 31.78950 120.93494 26751 ft 417 kts 332°
2026-05-06 09:10 31.81597 120.92086 27210 ft 419 kts 332°
2026-05-06 09:10 31.83369 120.91143 27522 ft 421 kts 332°
2026-05-06 09:10 31.86073 120.89705 27985 ft 423 kts 332°
2026-05-06 09:10 31.88758 120.88274 28449 ft 425 kts 332°
2026-05-06 09:11 31.91459 120.86834 28894 ft 428 kts 332°
2026-05-06 09:11 31.94142 120.85402 29328 ft 430 kts 332°
2026-05-06 09:11 31.96860 120.83951 29763 ft 433 kts 332°
2026-05-06 09:11 31.99618 120.82475 30067 ft 437 kts 332°
2026-05-06 09:12 32.02399 120.80987 30416 ft 440 kts 332°
2026-05-06 09:12 32.05194 120.79491 30779 ft 442 kts 332°
2026-05-06 09:12 32.07972 120.77912 31139 ft 443 kts 328°
2026-05-06 09:12 32.10556 120.75951 31496 ft 442 kts 320°
2026-05-06 09:13 32.12854 120.73552 31843 ft 442 kts 311°
2026-05-06 09:13 32.14775 120.70739 32302 ft 439 kts 302°
2026-05-06 09:13 32.16253 120.67602 32804 ft 437 kts 294°
2026-05-06 09:13 32.17253 120.64217 33264 ft 437 kts 284°
2026-05-06 09:14 32.17795 120.60683 33709 ft 438 kts 279°
2026-05-06 09:14 32.18157 120.57150 34102 ft 438 kts 277°
2026-05-06 09:14 32.18451 120.53554 34541 ft 436 kts 277°
2026-05-06 09:14 32.18713 120.49992 35018 ft 433 kts 276°
2026-05-06 09:15 32.18968 120.46475 35482 ft 430 kts 277°
2026-05-06 09:15 32.19231 120.42963 35929 ft 427 kts 277°
2026-05-06 09:15 32.19500 120.39481 36386 ft 425 kts 277°
2026-05-06 09:15 32.19775 120.36020 36833 ft 422 kts 277°
2026-05-06 09:16 32.20053 120.32581 37269 ft 419 kts 277°
2026-05-06 09:16 32.20331 120.29158 37683 ft 417 kts 277°
2026-05-06 09:16 32.20610 120.25759 38077 ft 415 kts 277°
2026-05-06 09:16 32.20888 120.22378 38487 ft 413 kts 278°
2026-05-06 09:17 32.21165 120.19006 38820 ft 412 kts 277°
2026-05-06 09:17 32.21440 120.15646 39096 ft 411 kts 277°
2026-05-06 09:17 32.21714 120.12284 39354 ft 411 kts 277°
2026-05-06 09:17 32.21986 120.08931 39622 ft 410 kts 277°
2026-05-06 09:18 32.22256 120.05582 39898 ft 409 kts 277°
2026-05-06 09:18 32.22524 120.02240 40136 ft 408 kts 277°
2026-05-06 09:18 32.22792 119.98904 40394 ft 408 kts 277°
2026-05-06 09:18 32.23058 119.95570 40634 ft 408 kts 277°
2026-05-06 09:19 32.23323 119.92236 40867 ft 408 kts 277°
2026-05-06 09:19 32.23587 119.88906 41096 ft 407 kts 277°
2026-05-06 09:19 32.23896 119.85584 41327 ft 406 kts 280°
2026-05-06 09:20 32.25453 119.79139 41406 ft 412 kts 294°
2026-05-06 09:20 32.28544 119.73449 41394 ft 415 kts 310°
2026-05-06 09:21 32.32918 119.68960 41399 ft 419 kts 320°
2026-05-06 09:21 32.37631 119.64926 41400 ft 425 kts 321°
2026-05-06 09:22 32.42509 119.60838 41401 ft 434 kts 321°
2026-05-06 09:22 32.47466 119.56635 41396 ft 440 kts 321°
2026-05-06 09:23 32.52417 119.52377 41385 ft 439 kts 320°
2026-05-06 09:23 32.57351 119.48109 41387 ft 439 kts 320°
2026-05-06 09:24 32.62288 119.43831 41387 ft 439 kts 320°
2026-05-06 09:24 32.67220 119.39554 41387 ft 439 kts 320°
2026-05-06 09:25 32.72153 119.35273 41386 ft 439 kts 320°
2026-05-06 09:25 32.77085 119.30987 41386 ft 439 kts 320°
2026-05-06 09:26 32.82008 119.26702 41381 ft 439 kts 320°
2026-05-06 09:26 32.86934 119.22408 41381 ft 439 kts 320°
2026-05-06 09:27 32.91863 119.18106 41374 ft 439 kts 320°
2026-05-06 09:27 32.96798 119.13817 41375 ft 439 kts 320°
2026-05-06 09:28 33.01749 119.09555 41373 ft 439 kts 320°
2026-05-06 09:28 33.06688 119.05305 41371 ft 439 kts 320°
2026-05-06 09:29 33.11642 119.01032 41365 ft 439 kts 320°
2026-05-06 09:29 33.16594 118.96751 41372 ft 439 kts 320°
2026-05-06 09:30 33.21532 118.92469 41363 ft 438 kts 320°
2026-05-06 09:30 33.26412 118.88210 41360 ft 438 kts 320°
2026-05-06 09:31 33.31336 118.83911 41355 ft 438 kts 320°
2026-05-06 09:31 33.36277 118.79628 41357 ft 439 kts 320°
2026-05-06 09:32 33.41216 118.75350 41347 ft 439 kts 320°
2026-05-06 09:32 33.46161 118.71060 41355 ft 439 kts 320°
2026-05-06 09:33 33.51099 118.66778 41338 ft 438 kts 320°
2026-05-06 09:33 33.56034 118.62499 41342 ft 437 kts 320°
2026-05-06 09:34 33.60956 118.58226 41338 ft 437 kts 320°
2026-05-06 09:34 33.65884 118.53939 41333 ft 437 kts 320°
2026-05-06 09:35 33.70806 118.49652 41337 ft 437 kts 320°
2026-05-06 09:35 33.75735 118.45352 41342 ft 437 kts 320°
2026-05-06 09:36 33.80646 118.41063 41323 ft 436 kts 320°
2026-05-06 09:36 33.85546 118.36776 41330 ft 436 kts 320°
2026-05-06 09:37 33.90447 118.32481 41321 ft 436 kts 320°
2026-05-06 09:37 33.95352 118.28178 41315 ft 436 kts 320°
2026-05-06 09:38 34.00266 118.23879 41312 ft 436 kts 320°
2026-05-06 09:38 34.05158 118.19622 41331 ft 436 kts 320°
2026-05-06 09:39 34.10080 118.15337 41310 ft 437 kts 320°
2026-05-06 09:39 34.15009 118.11044 41309 ft 437 kts 320°
2026-05-06 09:40 34.19938 118.06747 41310 ft 437 kts 320°
2026-05-06 09:40 34.27534 118.00535 41301 ft 445 kts 328°
2026-05-06 09:41 34.33366 117.97836 41322 ft 452 kts 336°
2026-05-06 09:41 34.39402 117.95629 41299 ft 454 kts 338°
2026-05-06 09:42 34.45471 117.93511 41302 ft 454 kts 338°
2026-05-06 09:42 34.51535 117.91375 41302 ft 454 kts 338°
2026-05-06 09:43 34.57593 117.89214 41296 ft 454 kts 338°
2026-05-06 09:43 34.63646 117.87042 41295 ft 453 kts 337°
2026-05-06 09:44 34.69677 117.84873 41296 ft 452 kts 337°
2026-05-06 09:44 34.75707 117.82701 41290 ft 452 kts 337°
2026-05-06 09:45 34.81693 117.80542 41293 ft 452 kts 337°
2026-05-06 09:45 34.87702 117.78351 41293 ft 450 kts 336°
2026-05-06 09:46 34.93685 117.76161 41293 ft 448 kts 336°
2026-05-06 09:46 34.99651 117.73974 41284 ft 448 kts 336°
2026-05-06 09:47 35.05617 117.71788 41285 ft 448 kts 336°
2026-05-06 09:47 35.11588 117.69598 41291 ft 448 kts 336°
2026-05-06 09:48 35.17545 117.67413 41288 ft 447 kts 336°
2026-05-06 09:48 35.23500 117.65225 41284 ft 447 kts 336°
2026-05-06 09:49 35.29455 117.63033 41286 ft 447 kts 336°
2026-05-06 09:49 35.35410 117.60838 41290 ft 447 kts 336°
2026-05-06 09:50 35.41374 117.58636 41279 ft 448 kts 336°
2026-05-06 09:50 35.47184 117.56487 41279 ft 448 kts 336°
2026-05-06 09:51 35.53137 117.54283 41274 ft 448 kts 336°
2026-05-06 09:51 35.59106 117.52069 41274 ft 448 kts 336°
2026-05-06 09:52 35.65038 117.49866 41274 ft 448 kts 336°
2026-05-06 09:52 35.71000 117.47647 41274 ft 448 kts 336°
2026-05-06 09:53 35.76923 117.45438 41268 ft 448 kts 336°
2026-05-06 09:53 35.82896 117.43209 41287 ft 449 kts 336°
2026-05-06 09:54 35.88880 117.40973 41263 ft 449 kts 336°
2026-05-06 09:54 35.94844 117.38740 41264 ft 449 kts 336°
2026-05-06 09:55 36.00833 117.36497 41264 ft 450 kts 336°
2026-05-06 09:55 36.06823 117.34278 41255 ft 450 kts 336°
2026-05-06 09:56 36.12827 117.32074 41254 ft 451 kts 336°
2026-05-06 09:56 36.18846 117.29844 41256 ft 451 kts 336°
2026-05-06 09:57 36.24866 117.27606 41262 ft 452 kts 336°
2026-05-06 09:57 36.30880 117.25370 41260 ft 452 kts 336°
2026-05-06 09:58 36.35894 117.23504 41260 ft 453 kts 335°
2026-05-06 09:58 36.41891 117.21151 41257 ft 449 kts 332°
2026-05-06 09:59 36.47684 117.18276 41254 ft 447 kts 330°
2026-05-06 09:59 36.53422 117.15298 41254 ft 448 kts 330°
2026-05-06 10:00 36.59176 117.12284 41254 ft 449 kts 330°
2026-05-06 10:00 36.64944 117.09265 41250 ft 450 kts 330°
2026-05-06 10:01 36.70717 117.06249 41246 ft 450 kts 330°
2026-05-06 10:01 36.76490 117.03231 41246 ft 450 kts 330°
2026-05-06 10:02 36.82266 117.00205 41262 ft 450 kts 329°
2026-05-06 10:02 36.88047 116.97170 41249 ft 451 kts 329°
2026-05-06 10:03 36.90936 116.95652 41123 ft 450 kts 329°
2026-05-06 10:03 36.93822 116.94136 40880 ft 450 kts 329°
2026-05-06 10:03 36.96716 116.92611 40623 ft 452 kts 329°
2026-05-06 10:03 36.99618 116.91081 40366 ft 453 kts 329°
2026-05-06 10:04 37.02529 116.89545 40136 ft 455 kts 329°
2026-05-06 10:04 37.05448 116.88004 39884 ft 455 kts 329°
2026-05-06 10:04 37.08369 116.86462 39672 ft 457 kts 329°
2026-05-06 10:04 37.11303 116.84910 39442 ft 460 kts 329°
2026-05-06 10:05 37.14267 116.83341 39207 ft 462 kts 329°
2026-05-06 10:05 37.17231 116.81771 38972 ft 463 kts 329°
2026-05-06 10:05 37.20212 116.80204 38739 ft 466 kts 330°
2026-05-06 10:05 37.23297 116.78867 38515 ft 471 kts 334°
2026-05-06 10:06 37.26422 116.77621 38257 ft 473 kts 334°
2026-05-06 10:06 37.29568 116.76409 37977 ft 474 kts 335°
2026-05-06 10:06 37.32727 116.75216 37754 ft 474 kts 335°
2026-05-06 10:06 37.35886 116.74032 37488 ft 474 kts 335°
2026-05-06 10:07 37.39043 116.72849 37234 ft 474 kts 335°
2026-05-06 10:07 37.42206 116.71659 36967 ft 474 kts 334°
2026-05-06 10:07 37.45368 116.70466 36712 ft 474 kts 334°
2026-05-06 10:07 37.48524 116.69272 36454 ft 475 kts 334°
2026-05-06 10:08 37.51645 116.68088 36210 ft 475 kts 334°
2026-05-06 10:08 37.54813 116.66884 35997 ft 475 kts 334°
2026-05-06 10:08 37.57982 116.65678 35749 ft 476 kts 334°
2026-05-06 10:08 37.61153 116.64470 35509 ft 477 kts 334°
2026-05-06 10:09 37.64306 116.63273 35263 ft 468 kts 334°
2026-05-06 10:09 37.67385 116.62110 35025 ft 457 kts 334°
2026-05-06 10:09 37.70402 116.60970 34783 ft 448 kts 334°
2026-05-06 10:09 37.73374 116.59838 34542 ft 446 kts 334°
2026-05-06 10:10 37.76347 116.58695 34320 ft 447 kts 334°
2026-05-06 10:10 37.79326 116.57546 34122 ft 448 kts 334°
2026-05-06 10:10 37.82074 116.56485 33928 ft 450 kts 334°
2026-05-06 10:10 37.85074 116.55324 33686 ft 452 kts 334°
2026-05-06 10:11 37.88084 116.54165 33402 ft 452 kts 334°
2026-05-06 10:11 37.91091 116.53013 32761 ft 451 kts 334°
2026-05-06 10:11 37.94091 116.51859 31997 ft 450 kts 333°
2026-05-06 10:11 37.96959 116.50409 31253 ft 441 kts 324°
2026-05-06 10:12 37.99565 116.48482 30768 ft 428 kts 319°
2026-05-06 10:12 38.02021 116.46412 30280 ft 420 kts 317°
2026-05-06 10:12 38.04402 116.44302 29767 ft 414 kts 316°
2026-05-06 10:12 38.06725 116.42181 29154 ft 409 kts 316°
2026-05-06 10:13 38.09040 116.40035 28022 ft 416 kts 316°
2026-05-06 10:13 38.11399 116.37829 26954 ft 424 kts 316°
2026-05-06 10:13 38.13764 116.35631 26390 ft 419 kts 316°
2026-05-06 10:13 38.16096 116.33481 25870 ft 413 kts 316°
2026-05-06 10:14 38.18420 116.31345 25356 ft 408 kts 316°
2026-05-06 10:14 38.20706 116.29245 24852 ft 403 kts 316°
2026-05-06 10:14 38.23046 116.27292 24347 ft 406 kts 324°
2026-05-06 10:14 38.25677 116.25992 23824 ft 418 kts 338°
2026-05-06 10:15 38.28652 116.25655 23255 ft 433 kts 358°
2026-05-06 10:15 38.31598 116.26322 22632 ft 438 kts
2026-05-06 10:15 38.34562 116.27314 22080 ft 434 kts
2026-05-06 10:15 38.37466 116.28334 21528 ft 429 kts
2026-05-06 10:16 38.40294 116.29325 20994 ft 425 kts
2026-05-06 10:16 38.43175 116.30329 20441 ft 422 kts
2026-05-06 10:16 38.45956 116.31294 19915 ft 418 kts 10°
2026-05-06 10:16 38.48756 116.32262 19399 ft 415 kts 10°
2026-05-06 10:17 38.51537 116.33223 18858 ft 413 kts 10°
2026-05-06 10:17 38.54310 116.34181 18328 ft 411 kts 10°
2026-05-06 10:17 38.57062 116.35132 17748 ft 409 kts 11°
2026-05-06 10:17 38.59778 116.36073 17326 ft 403 kts 11°
2026-05-06 10:18 38.62471 116.37100 17271 ft 408 kts 17°
2026-05-06 10:18 38.64937 116.38940 17219 ft 416 kts 38°
2026-05-06 10:18 38.66821 116.41738 17208 ft 417 kts 55°
2026-05-06 10:18 38.68370 116.44883 17148 ft 417 kts 58°
2026-05-06 10:19 38.69868 116.48069 17077 ft 417 kts 59°
2026-05-06 10:19 38.71368 116.51243 16981 ft 417 kts 58°
2026-05-06 10:19 38.72877 116.54407 16918 ft 416 kts 58°
2026-05-06 10:19 38.74392 116.57565 16821 ft 415 kts 58°
2026-05-06 10:20 38.75910 116.60719 16748 ft 416 kts 58°
2026-05-06 10:20 38.77426 116.63864 16679 ft 415 kts 58°
2026-05-06 10:20 38.78943 116.67011 16593 ft 415 kts 58°
2026-05-06 10:20 38.80455 116.70150 16529 ft 414 kts 58°
2026-05-06 10:21 38.81964 116.73285 16430 ft 412 kts 58°
2026-05-06 10:21 38.83464 116.76402 16342 ft 411 kts 58°
2026-05-06 10:21 38.84960 116.79514 16267 ft 410 kts 58°
2026-05-06 10:21 38.86454 116.82625 16189 ft 409 kts 58°
2026-05-06 10:22 38.87943 116.85729 16104 ft 408 kts 58°
2026-05-06 10:22 38.89430 116.88829 16025 ft 408 kts 58°
2026-05-06 10:22 38.90919 116.91939 15945 ft 409 kts 58°
2026-05-06 10:22 38.92406 116.95046 15880 ft 408 kts 58°
2026-05-06 10:23 38.93889 116.98148 15804 ft 407 kts 58°
2026-05-06 10:23 38.95365 117.01241 15708 ft 404 kts 57°
2026-05-06 10:23 38.96830 117.04312 15635 ft 403 kts 57°
2026-05-06 10:23 38.98290 117.07375 15559 ft 402 kts 57°
2026-05-06 10:24 38.99749 117.10438 15445 ft 401 kts 57°
2026-05-06 10:24 39.01396 117.13302 15303 ft 397 kts 43°
2026-05-06 10:24 39.03618 117.15306 15175 ft 387 kts 20°
2026-05-06 10:24 39.06176 117.16084 15057 ft 374 kts 356°
2026-05-06 10:25 39.08705 117.15634 14940 ft 363 kts 339°
2026-05-06 10:25 39.11095 117.14638 14833 ft 360 kts 335°
2026-05-06 10:25 39.13449 117.13562 14701 ft 358 kts 335°
2026-05-06 10:25 39.15791 117.12490 14591 ft 357 kts 335°
2026-05-06 10:26 39.18128 117.11431 14484 ft 355 kts 336°
2026-05-06 10:26 39.20452 117.10386 14364 ft 354 kts 336°
2026-05-06 10:26 39.22784 117.09342 14250 ft 353 kts 336°
2026-05-06 10:26 39.25097 117.08310 14145 ft 352 kts 336°
2026-05-06 10:27 39.27407 117.07279 14025 ft 351 kts 336°
2026-05-06 10:27 39.29715 117.06249 13916 ft 350 kts 336°
2026-05-06 10:27 39.32008 117.05225 13801 ft 349 kts 336°
2026-05-06 10:27 39.34295 117.04205 13689 ft 348 kts 335°
2026-05-06 10:28 39.36589 117.03180 13543 ft 348 kts 336°
2026-05-06 10:28 39.38868 117.02162 13275 ft 346 kts 336°
2026-05-06 10:28 39.41134 117.01148 13054 ft 344 kts 336°
2026-05-06 10:28 39.43389 117.00138 12846 ft 341 kts 336°
2026-05-06 10:29 39.45625 116.99136 12614 ft 340 kts 336°
2026-05-06 10:29 39.47852 116.98137 12420 ft 338 kts 336°
2026-05-06 10:29 39.50067 116.97144 12208 ft 336 kts 336°
2026-05-06 10:29 39.52270 116.96155 12002 ft 334 kts 336°
2026-05-06 10:30 39.54464 116.95169 11791 ft 332 kts 336°
2026-05-06 10:30 39.56637 116.94193 11587 ft 330 kts 335°
2026-05-06 10:30 39.58796 116.93223 11390 ft 326 kts 336°
2026-05-06 10:30 39.60953 116.92312 11179 ft 326 kts 340°
2026-05-06 10:31 39.63157 116.91790 10981 ft 327 kts 347°
2026-05-06 10:31 39.65411 116.91431 10777 ft 326 kts 348°
2026-05-06 10:31 39.67659 116.91101 10560 ft 323 kts 348°
2026-05-06 10:31 39.69882 116.90774 10381 ft 318 kts 348°
2026-05-06 10:32 39.72027 116.90460 10216 ft 303 kts 348°
2026-05-06 10:32 39.74071 116.90158 10039 ft 289 kts 348°
2026-05-06 10:32 39.76031 116.89865 9856 ft 277 kts 348°
2026-05-06 10:32 39.77906 116.89583 9675 ft 267 kts 348°
2026-05-06 10:33 39.79746 116.89301 9462 ft 266 kts 348°
2026-05-06 10:33 39.81586 116.89017 9300 ft 267 kts 348°
2026-05-06 10:33 39.83430 116.88734 9139 ft 266 kts 348°
2026-05-06 10:33 39.85256 116.88455 9022 ft 266 kts 348°
2026-05-06 10:34 39.87096 116.88175 8952 ft 266 kts 349°
2026-05-06 10:34 39.88934 116.87895 8844 ft 266 kts 349°
2026-05-06 10:34 39.90764 116.87616 8673 ft 265 kts 349°
2026-05-06 10:34 39.92595 116.87337 8513 ft 265 kts 349°
2026-05-06 10:35 39.94423 116.87059 8364 ft 264 kts 349°
2026-05-06 10:35 39.96237 116.86772 8241 ft 260 kts 349°
2026-05-06 10:35 39.98052 116.86489 8073 ft 266 kts 349°
2026-05-06 10:35 39.99899 116.86211 7927 ft 267 kts 349°
2026-05-06 10:36 40.01436 116.85800 7796 ft 263 kts 338°
2026-05-06 10:36 40.02999 116.84624 7649 ft 259 kts 316°
2026-05-06 10:36 40.04042 116.82738 7503 ft 258 kts 294°
2026-05-06 10:36 40.04400 116.80438 7360 ft 262 kts 274°
2026-05-06 10:37 40.04461 116.78061 7211 ft 262 kts 280°
2026-05-06 10:37 40.05013 116.75827 7058 ft 259 kts 301°
2026-05-06 10:37 40.06213 116.74117 6912 ft 258 kts 325°
2026-05-06 10:37 40.07871 116.73209 6762 ft 261 kts 345°
2026-05-06 10:38 40.09666 116.72844 6621 ft 262 kts 351°
2026-05-06 10:38 40.11474 116.72583 6475 ft 262 kts 351°
2026-05-06 10:38 40.13283 116.72330 6328 ft 260 kts 351°
2026-05-06 10:38 40.15078 116.72071 6188 ft 260 kts 351°
2026-05-06 10:39 40.16872 116.71803 6027 ft 259 kts 351°
2026-05-06 10:39 40.18667 116.71532 5886 ft 260 kts 351°
2026-05-06 10:39 40.20464 116.71256 5743 ft 260 kts 352°
2026-05-06 10:39 40.22256 116.70980 5599 ft 260 kts 351°
2026-05-06 10:40 40.24057 116.70701 5458 ft 261 kts 351°
2026-05-06 10:40 40.25867 116.70420 5311 ft 262 kts 351°
2026-05-06 10:40 40.27677 116.70139 5170 ft 262 kts 351°
2026-05-06 10:40 40.29467 116.69863 5028 ft 253 kts 352°
2026-05-06 10:41 40.31163 116.69606 4887 ft 243 kts 352°
2026-05-06 10:41 40.32805 116.69353 4753 ft 234 kts 352°
2026-05-06 10:41 40.34385 116.69067 4625 ft 225 kts 346°
2026-05-06 10:41 40.35777 116.68263 4495 ft 218 kts 321°
2026-05-06 10:42 40.36691 116.66709 4376 ft 218 kts 292°
2026-05-06 10:42 40.36903 116.64781 4287 ft 212 kts 270°
2026-05-06 10:42 40.36767 116.62849 4012 ft 215 kts 264°
2026-05-06 10:42 40.36558 116.60864 3917 ft 224 kts 262°
2026-05-06 10:43 40.35967 116.58983 3835 ft 227 kts 231°
2026-05-06 10:43 40.34642 116.57891 3586 ft 229 kts 200°
2026-05-06 10:43 40.33074 116.57510 3301 ft 229 kts 181°
2026-05-06 10:44 40.30435 116.57847 2912 ft 227 kts 171°
2026-05-06 10:44 40.28904 116.58098 2653 ft 224 kts 172°
2026-05-06 10:44 40.27375 116.58350 2461 ft 217 kts 171°
2026-05-06 10:44 40.25922 116.58591 2353 ft 204 kts 171°
2026-05-06 10:45 40.24538 116.58820 2101 ft 198 kts 171°
2026-05-06 10:45 40.23199 116.59037 1993 ft 192 kts 172°
2026-05-06 10:45 40.21901 116.59243 1981 ft 185 kts 171°
2026-05-06 10:45 40.20635 116.59441 1991 ft 182 kts 171°
2026-05-06 10:46 40.19418 116.59629 1975 ft 168 kts 171°
2026-05-06 10:46 40.18297 116.59805 1977 ft 159 kts 171°
2026-05-06 10:46 40.17232 116.59973 1927 ft 151 kts 171°
2026-05-06 10:46 40.16205 116.60137 1858 ft 149 kts 170°
2026-05-06 10:47 40.15158 116.60306 1481 ft 153 kts 172°
2026-05-06 10:47 40.14097 116.60434 1036 ft 158 kts 173°
2026-05-06 10:47 40.13012 116.60617 730 ft 153 kts 169°
2026-05-06 10:47 40.12015 116.60801 644 ft 136 kts 172°
2026-05-06 10:48 40.11103 116.60945 517 ft 130 kts 172°
2026-05-06 10:48 40.10216 116.61069 365 ft 127 kts 172°
2026-05-06 10:48 40.09346 116.61207 229 ft 126 kts 171°
2026-05-06 10:48 40.08473 116.61346 120 ft 127 kts 172°
2026-05-06 10:49 40.07739 116.61477 108 ft 79 kts 172°
2026-05-06 10:49 40.07389 116.61528 116 ft 21 kts 175°
2026-05-06 10:49 40.07313 116.61536 119 ft 21 kts 175°
2026-05-06 10:49 40.07082 116.61584 117 ft 46 kts 172°
2026-05-06 10:50 40.06800 116.61500 116 ft 14 kts 204°
2026-05-06 10:50 40.06793 116.61494 117 ft 0 kts 207°
2026-05-06 10:51 40.06730 116.61458 117 ft 24 kts 200°
2026-05-06 10:51 40.06625 116.61340 116 ft 17 kts 271°
2026-05-06 10:51 40.06701 116.61241 117 ft 19 kts 351°
2026-05-06 10:52 40.06851 116.61256 116 ft 9 kts 336°
2026-05-06 10:52 40.06863 116.61199 118 ft 10 kts 268°
2026-05-06 10:52 40.06854 116.61056 116 ft 19 kts 259°
2026-05-06 10:52 40.06770 116.61003 114 ft 12 kts 168°
2026-05-06 10:53 40.06733 116.61010 117 ft 0 kts 173°
2026-05-06 10:54 40.06722 116.61012 115 ft 7 kts 173°
2026-05-06 10:54 40.06630 116.61026 117 ft 19 kts 173°
2026-05-06 10:54 40.06468 116.61052 117 ft 29 kts 173°
2026-05-06 10:54 40.06335 116.61029 117 ft 11 kts 239°
2026-05-06 10:55 40.06324 116.60909 117 ft 20 kts 265°
2026-05-06 10:55 40.06310 116.60680 116 ft 27 kts 265°
2026-05-06 10:55 40.06311 116.60576 116 ft 11 kts 273°
2026-05-06 10:55 40.06359 116.60516 114 ft 13 kts 343°
2026-05-06 10:56 40.06403 116.60518 115 ft 6 kts 30°
2026-05-06 10:56 40.06405 116.60551 114 ft 8 kts 87°
2026-05-06 10:56 40.06409 116.60605 114 ft 0 kts 82°
2026-05-06 10:56 40.06411 116.60621 114 ft 1 kts 82°
2026-05-06 10:57 40.06412 116.60628 115 ft 0 kts 82°